Time,TemperatureF,DewpointF,PressureIn,WindDirection,WindDirectionDegrees,WindSpeedMPH,WindSpeedGustMPH,Humidity,HourlyPrecipIn,Conditions,Clouds,dailyrainin,SoftwareType,DateUTC
2013-04-30 00:02:00,63.0,50.0,29.60,SSE,150,0.0,0.0,63,0.00,,,0.08,,2013-04-30 05:02:00,
2013-04-30 00:12:00,63.0,50.0,29.60,SSE,150,0.0,0.0,63,0.00,,,0.08,,2013-04-30 05:12:00,
2013-04-30 00:22:00,63.0,51.0,29.57,SE,133,0.0,4.0,65,0.00,,,0.08,,2013-04-30 05:22:00,
2013-04-30 00:31:00,63.0,51.0,29.54,ESE,116,0.0,0.0,64,0.00,,,0.08,,2013-04-30 05:31:00,
2013-04-30 00:42:00,63.0,51.0,29.54,ESE,116,0.0,0.0,64,0.00,,,0.08,,2013-04-30 05:42:00,
2013-04-30 00:51:00,63.0,51.0,29.54,East,85,0.0,6.0,64,0.00,,,0.08,,2013-04-30 05:51:00,
2013-04-30 01:01:00,62.0,50.0,29.54,ESE,123,0.0,5.0,65,0.00,,,0.08,,2013-04-30 06:01:00,
2013-04-30 01:12:00,62.0,50.0,29.54,SE,124,0.0,3.0,65,0.00,,,0.08,,2013-04-30 06:12:00,
2013-04-30 01:21:00,62.0,50.0,29.54,SE,124,0.0,3.0,65,0.00,,,0.08,,2013-04-30 06:21:00,
2013-04-30 01:31:00,62.0,50.0,29.54,ESE,103,0.0,0.0,65,0.00,,,0.08,,2013-04-30 06:31:00,
2013-04-30 01:41:00,62.0,50.0,29.54,ESE,103,0.0,0.0,65,0.00,,,0.08,,2013-04-30 06:41:00,
2013-04-30 01:52:00,63.0,51.0,29.54,South,188,3.0,4.0,66,0.00,,,0.08,,2013-04-30 06:52:00,
2013-04-30 02:01:00,63.0,51.0,29.54,South,188,3.0,4.0,66,0.00,,,0.08,,2013-04-30 07:01:00,
2013-04-30 02:11:00,63.0,51.0,29.54,South,188,3.0,4.0,66,0.00,,,0.08,,2013-04-30 07:11:00,
2013-04-30 02:21:00,64.0,51.0,29.54,South,189,0.0,0.0,63,0.00,,,0.08,,2013-04-30 07:21:00,
2013-04-30 02:32:00,63.0,51.0,29.54,South,189,6.0,6.0,66,0.00,,,0.08,,2013-04-30 07:32:00,
2013-04-30 02:42:00,63.0,51.0,29.54,South,189,6.0,6.0,66,0.00,,,0.08,,2013-04-30 07:42:00,
2013-04-30 02:52:00,62.0,52.0,29.52,South,173,0.0,8.0,69,0.00,,,0.08,,2013-04-30 07:52:00,
2013-04-30 03:02:00,62.0,53.0,29.52,SE,146,0.0,0.0,72,0.00,,,0.08,,2013-04-30 08:02:00,
2013-04-30 03:11:00,62.0,53.0,29.52,SE,146,0.0,0.0,72,0.00,,,0.08,,2013-04-30 08:11:00,
2013-04-30 03:21:00,62.0,53.0,29.52,SSW,199,6.0,6.0,72,0.00,,,0.08,,2013-04-30 08:21:00,
2013-04-30 03:32:00,62.0,53.0,29.52,SE,143,0.0,0.0,73,0.00,,,0.08,,2013-04-30 08:32:00,
2013-04-30 03:42:00,62.0,53.0,29.52,SE,143,0.0,0.0,73,0.00,,,0.08,,2013-04-30 08:42:00,
2013-04-30 03:52:00,61.0,53.0,29.52,SE,139,0.0,0.0,75,0.00,,,0.08,,2013-04-30 08:52:00,
2013-04-30 04:01:00,61.0,52.0,29.52,SE,131,3.0,3.0,73,0.00,,,0.04,,2013-04-30 09:01:00,
2013-04-30 04:11:00,61.0,52.0,29.52,SE,131,3.0,3.0,73,0.00,,,0.04,,2013-04-30 09:11:00,
2013-04-30 04:22:00,61.0,52.0,29.52,SE,131,3.0,3.0,73,0.00,,,0.04,,2013-04-30 09:22:00,
2013-04-30 04:33:00,63.0,53.0,29.54,SSE,164,0.0,7.0,71,0.00,,,0.00,,2013-04-30 09:33:00,
2013-04-30 04:43:00,63.0,53.0,29.54,SSE,164,0.0,7.0,71,0.00,,,0.00,,2013-04-30 09:43:00,
2013-04-30 04:52:00,64.0,54.0,29.52,SSE,149,5.0,8.0,69,0.00,,,0.00,,2013-04-30 09:52:00,
2013-04-30 05:03:00,64.0,53.0,29.54,SSE,167,8.0,8.0,67,0.00,,,0.00,,2013-04-30 10:03:00,
2013-04-30 05:11:00,64.0,53.0,29.54,SSE,167,8.0,8.0,67,0.00,,,0.00,,2013-04-30 10:11:00,
2013-04-30 05:22:00,64.0,53.0,29.52,SSE,160,5.0,6.0,67,0.00,,,0.00,,2013-04-30 10:22:00,
2013-04-30 05:32:00,64.0,52.0,29.52,SSE,161,10.0,10.0,66,0.00,,,0.00,,2013-04-30 10:32:00,
2013-04-30 05:41:00,64.0,52.0,29.52,SSE,161,10.0,10.0,66,0.00,,,0.00,,2013-04-30 10:41:00,
2013-04-30 05:52:00,64.0,53.0,29.52,SSE,162,8.0,13.0,68,0.00,,,0.00,,2013-04-30 10:52:00,
2013-04-30 06:01:00,64.0,53.0,29.54,SSE,152,6.0,9.0,68,0.00,,,0.00,,2013-04-30 11:01:00,
2013-04-30 06:11:00,64.0,53.0,29.54,SSE,152,6.0,9.0,68,0.00,,,0.00,,2013-04-30 11:11:00,
2013-04-30 06:21:00,64.0,53.0,29.54,SE,139,6.0,8.0,68,0.00,,,0.00,,2013-04-30 11:21:00,
2013-04-30 06:31:00,64.0,54.0,29.54,SE,144,6.0,10.0,69,0.00,,,0.00,,2013-04-30 11:31:00,
2013-04-30 06:42:00,64.0,54.0,29.54,SE,144,6.0,10.0,69,0.00,,,0.00,,2013-04-30 11:42:00,
2013-04-30 06:51:00,63.0,53.0,29.54,SSE,151,8.0,9.0,70,0.00,,,0.00,,2013-04-30 11:51:00,
2013-04-30 07:01:00,63.0,53.0,29.54,SE,143,9.0,13.0,70,0.00,,,0.00,,2013-04-30 12:01:00,
2013-04-30 07:11:00,63.0,53.0,29.54,SE,143,9.0,13.0,70,0.00,,,0.00,,2013-04-30 12:11:00,
2013-04-30 07:21:00,64.0,54.0,29.54,SSE,156,16.0,16.0,69,0.00,,,0.00,,2013-04-30 12:21:00,
2013-04-30 07:31:00,64.0,52.0,29.54,SSW,210,11.0,11.0,66,0.00,,,0.00,,2013-04-30 12:31:00,
2013-04-30 07:41:00,64.0,52.0,29.54,SSW,210,11.0,11.0,66,0.00,,,0.00,,2013-04-30 12:41:00,
2013-04-30 07:51:00,65.0,52.0,29.54,South,169,11.0,11.0,63,0.00,,,0.00,,2013-04-30 12:51:00,
2013-04-30 08:01:00,65.0,52.0,29.57,South,182,12.0,12.0,62,0.00,,,0.00,,2013-04-30 13:01:00,
2013-04-30 08:11:00,65.0,52.0,29.57,South,182,12.0,12.0,62,0.00,,,0.00,,2013-04-30 13:11:00,
2013-04-30 08:21:00,67.0,50.0,29.57,South,172,13.0,13.0,55,0.00,,,0.00,,2013-04-30 13:21:00,
2013-04-30 08:31:00,69.0,48.0,29.57,South,178,19.0,19.0,47,0.00,,,0.00,,2013-04-30 13:31:00,
2013-04-30 08:41:00,69.0,48.0,29.57,South,178,19.0,19.0,47,0.00,,,0.00,,2013-04-30 13:41:00,
2013-04-30 08:52:00,69.0,47.0,29.57,SSW,197,19.0,19.0,46,0.00,,,0.00,,2013-04-30 13:52:00,
2013-04-30 09:02:00,70.0,47.0,29.57,WSW,254,9.0,15.0,44,0.00,,,0.00,,2013-04-30 14:02:00,
2013-04-30 09:11:00,70.0,47.0,29.57,WSW,254,9.0,15.0,44,0.00,,,0.00,,2013-04-30 14:11:00,
2013-04-30 09:21:00,70.0,47.0,29.57,WSW,254,9.0,15.0,44,0.00,,,0.00,,2013-04-30 14:21:00,
2013-04-30 09:31:00,71.0,47.0,29.57,SSW,212,13.0,17.0,43,0.00,,,0.00,,2013-04-30 14:31:00,
2013-04-30 09:41:00,71.0,47.0,29.57,SSW,212,13.0,17.0,43,0.00,,,0.00,,2013-04-30 14:41:00,
2013-04-30 09:52:00,73.0,47.0,29.57,West,271,10.0,19.0,39,0.00,,,0.00,,2013-04-30 14:52:00,
2013-04-30 10:01:00,74.0,46.0,29.57,SSW,193,14.0,26.0,37,0.00,,,0.00,,2013-04-30 15:01:00,
2013-04-30 10:11:00,74.0,46.0,29.57,SSW,193,14.0,26.0,37,0.00,,,0.00,,2013-04-30 15:11:00,
2013-04-30 10:21:00,73.0,46.0,29.60,SSW,208,13.0,16.0,38,0.00,,,0.00,,2013-04-30 15:21:00,
2013-04-30 10:32:00,75.0,46.0,29.60,SW,218,9.0,16.0,36,0.00,,,0.00,,2013-04-30 15:32:00,
2013-04-30 10:42:00,75.0,46.0,29.60,SW,218,9.0,16.0,36,0.00,,,0.00,,2013-04-30 15:42:00,
2013-04-30 10:52:00,74.0,45.0,29.60,SW,229,13.0,16.0,36,0.00,,,0.00,,2013-04-30 15:52:00,
2013-04-30 11:02:00,75.0,46.0,29.60,SW,233,15.0,15.0,36,0.00,,,0.00,,2013-04-30 16:02:00,
2013-04-30 11:12:00,75.0,46.0,29.60,SW,233,15.0,15.0,36,0.00,,,0.00,,2013-04-30 16:12:00,
2013-04-30 11:23:00,77.0,46.0,29.60,South,169,19.0,26.0,34,0.00,,,0.00,,2013-04-30 16:23:00,
2013-04-30 11:33:00,77.0,46.0,29.63,SW,231,15.0,15.0,33,0.00,,,0.00,,2013-04-30 16:33:00,
2013-04-30 11:42:00,77.0,46.0,29.63,SW,231,15.0,15.0,33,0.00,,,0.00,,2013-04-30 16:42:00,
2013-04-30 11:52:00,77.0,46.0,29.63,WSW,247,5.0,5.0,33,0.00,,,0.00,,2013-04-30 16:52:00,
2013-04-30 12:02:00,78.0,46.0,29.63,WSW,252,8.0,8.0,32,0.00,,,0.00,,2013-04-30 17:02:00,
2013-04-30 12:12:00,78.0,46.0,29.63,WSW,252,8.0,8.0,32,0.00,,,0.00,,2013-04-30 17:12:00,
2013-04-30 12:22:00,76.0,44.0,29.63,SW,232,9.0,9.0,32,0.00,,,0.00,,2013-04-30 17:22:00,
2013-04-30 12:32:00,76.0,43.0,29.66,WSW,254,13.0,13.0,31,0.00,,,0.00,,2013-04-30 17:32:00,
2013-04-30 12:42:00,76.0,43.0,29.66,WSW,254,13.0,13.0,31,0.00,,,0.00,,2013-04-30 17:42:00,
2013-04-30 12:52:00,75.0,42.0,29.66,West,263,14.0,14.0,31,0.00,,,0.00,,2013-04-30 17:52:00,
2013-04-30 13:01:00,75.0,42.0,29.66,West,268,11.0,11.0,31,0.00,,,0.00,,2013-04-30 18:01:00,
2013-04-30 13:11:00,75.0,42.0,29.66,West,268,11.0,11.0,31,0.00,,,0.00,,2013-04-30 18:11:00,
2013-04-30 13:22:00,76.0,43.0,29.66,WNW,282,5.0,5.0,31,0.00,,,0.00,,2013-04-30 18:22:00,
2013-04-30 13:32:00,75.0,41.0,29.69,NNW,342,9.0,9.0,30,0.00,,,0.00,,2013-04-30 18:32:00,
2013-04-30 13:41:00,74.0,41.0,29.69,North,0,8.0,8.0,30,0.00,,,0.00,,2013-04-30 18:41:00,
2013-04-30 13:52:00,74.0,41.0,29.69,North,0,8.0,8.0,30,0.00,,,0.00,,2013-04-30 18:52:00,
2013-04-30 14:01:00,74.0,41.0,29.69,NNW,346,8.0,13.0,30,0.00,,,0.00,,2013-04-30 19:01:00,
2013-04-30 14:11:00,75.0,41.0,29.69,NNW,335,8.0,8.0,29,0.00,,,0.00,,2013-04-30 19:11:00,
2013-04-30 14:21:00,75.0,41.0,29.69,NNW,335,8.0,8.0,29,0.00,,,0.00,,2013-04-30 19:21:00,
2013-04-30 14:32:00,75.0,38.0,29.69,NNW,341,4.0,10.0,26,0.00,,,0.00,,2013-04-30 19:32:00,
2013-04-30 14:42:00,75.0,38.0,29.69,NNW,341,4.0,10.0,26,0.00,,,0.00,,2013-04-30 19:42:00,
2013-04-30 14:52:00,76.0,39.0,29.72,NNW,329,6.0,8.0,26,0.00,,,0.00,,2013-04-30 19:52:00,
2013-04-30 15:02:00,78.0,39.0,29.72,NW,320,3.0,8.0,25,0.00,,,0.00,,2013-04-30 20:02:00,
2013-04-30 15:11:00,78.0,39.0,29.72,NW,320,3.0,8.0,25,0.00,,,0.00,,2013-04-30 20:11:00,
2013-04-30 15:21:00,79.0,40.0,29.72,NNW,332,8.0,12.0,25,0.00,,,0.00,,2013-04-30 20:21:00,
2013-04-30 15:32:00,77.0,42.0,29.72,NW,323,0.0,3.0,29,0.00,,,0.00,,2013-04-30 20:32:00,
2013-04-30 15:42:00,77.0,42.0,29.72,NW,323,0.0,3.0,29,0.00,,,0.00,,2013-04-30 20:42:00,
2013-04-30 15:52:00,77.0,42.0,29.72,NW,323,0.0,3.0,29,0.00,,,0.00,,2013-04-30 20:52:00,
2013-04-30 16:01:00,76.0,40.0,29.75,WNW,289,12.0,12.0,27,0.00,,,0.00,,2013-04-30 21:01:00,
2013-04-30 16:11:00,76.0,40.0,29.75,WNW,289,12.0,12.0,27,0.00,,,0.00,,2013-04-30 21:11:00,
2013-04-30 16:22:00,76.0,40.0,29.75,WNW,289,12.0,12.0,27,0.00,,,0.00,,2013-04-30 21:22:00,
2013-04-30 16:32:00,77.0,39.0,29.75,WNW,295,5.0,9.0,26,0.00,,,0.00,,2013-04-30 21:32:00,
2013-04-30 16:42:00,77.0,39.0,29.75,WNW,295,5.0,9.0,26,0.00,,,0.00,,2013-04-30 21:42:00,
2013-04-30 16:53:00,75.0,39.0,29.75,NW,305,6.0,6.0,27,0.00,,,0.00,,2013-04-30 21:53:00,
2013-04-30 17:02:00,74.0,39.0,29.75,NW,317,8.0,8.0,28,0.00,,,0.00,,2013-04-30 22:02:00,
2013-04-30 17:12:00,74.0,39.0,29.75,NW,317,8.0,8.0,28,0.00,,,0.00,,2013-04-30 22:12:00,
2013-04-30 17:23:00,74.0,39.0,29.75,West,274,10.0,10.0,28,0.00,,,0.00,,2013-04-30 22:23:00,
2013-04-30 17:32:00,72.0,37.0,29.75,NNW,345,9.0,9.0,28,0.00,,,0.00,,2013-04-30 22:32:00,
2013-04-30 17:41:00,72.0,37.0,29.75,NNW,345,9.0,9.0,28,0.00,,,0.00,,2013-04-30 22:41:00,
2013-04-30 17:52:00,73.0,37.0,29.75,NW,326,8.0,8.0,27,0.00,,,0.00,,2013-04-30 22:52:00,
2013-04-30 18:02:00,72.0,37.0,29.78,NNW,345,8.0,10.0,28,0.00,,,0.00,,2013-04-30 23:02:00,
2013-04-30 18:12:00,72.0,37.0,29.78,NNW,345,8.0,10.0,28,0.00,,,0.00,,2013-04-30 23:12:00,
2013-04-30 18:21:00,70.0,35.0,29.78,North,353,8.0,11.0,28,0.00,,,0.00,,2013-04-30 23:21:00,
2013-04-30 18:32:00,70.0,35.0,29.78,NNW,341,9.0,14.0,28,0.00,,,0.00,,2013-04-30 23:32:00,
2013-04-30 18:42:00,70.0,35.0,29.78,NNW,341,9.0,14.0,28,0.00,,,0.00,,2013-04-30 23:42:00,
2013-04-30 18:52:00,58.0,43.0,29.78,North,357,0.0,9.0,57,0.00,,,0.00,,2013-04-30 23:52:00,
2013-04-30 19:01:00,63.0,40.0,29.78,NNW,346,6.0,6.0,43,0.00,,,0.00,,2013-05-01 00:01:00,
2013-04-30 19:11:00,63.0,40.0,29.78,NNW,346,6.0,6.0,43,0.00,,,0.00,,2013-05-01 00:11:00,
2013-04-30 19:21:00,66.0,38.0,29.78,NNW,345,12.0,14.0,35,0.00,,,0.00,,2013-05-01 00:21:00,
2013-04-30 19:32:00,65.0,36.0,29.78,NW,321,9.0,12.0,34,0.00,,,0.00,,2013-05-01 00:32:00,
2013-04-30 19:42:00,65.0,36.0,29.78,NW,321,9.0,12.0,34,0.00,,,0.00,,2013-05-01 00:42:00,
2013-04-30 19:52:00,56.0,41.0,29.81,North,353,0.0,6.0,58,0.00,,,0.00,,2013-05-01 00:52:00,
2013-04-30 20:01:00,54.0,44.0,29.81,NNW,329,0.0,0.0,70,0.04,,,0.04,,2013-05-01 01:01:00,
2013-04-30 20:11:00,54.0,44.0,29.81,NNW,329,0.0,0.0,70,0.04,,,0.04,,2013-05-01 01:11:00,
2013-04-30 20:21:00,53.0,46.0,29.81,North,353,6.0,6.0,78,0.08,,,0.08,,2013-05-01 01:21:00,
2013-04-30 20:31:00,53.0,48.0,29.81,WNW,282,0.0,9.0,82,0.08,,,0.08,,2013-05-01 01:31:00,
2013-04-30 20:41:00,53.0,48.0,29.81,WNW,282,0.0,9.0,82,0.08,,,0.08,,2013-05-01 01:41:00,
2013-04-30 20:52:00,52.0,46.0,29.87,WNW,303,0.0,0.0,80,0.12,,,0.12,,2013-05-01 01:52:00,
2013-04-30 21:02:00,51.0,47.0,29.84,North,6,0.0,6.0,85,0.08,,,0.12,,2013-05-01 02:02:00,
2013-04-30 21:11:00,51.0,47.0,29.84,North,6,0.0,6.0,85,0.08,,,0.12,,2013-05-01 02:11:00,
2013-04-30 21:21:00,51.0,47.0,29.84,North,0,6.0,6.0,85,0.08,,,0.16,,2013-05-01 02:21:00,
2013-04-30 21:32:00,51.0,48.0,29.87,North,357,0.0,6.0,88,0.16,,,0.24,,2013-05-01 02:32:00,
2013-04-30 21:42:00,51.0,48.0,29.87,North,357,0.0,6.0,88,0.16,,,0.24,,2013-05-01 02:42:00,
2013-04-30 21:52:00,51.0,48.0,29.93,NNE,28,9.0,13.0,89,0.16,,,0.24,,2013-05-01 02:52:00,
2013-04-30 22:01:00,50.0,47.0,29.93,NNW,330,8.0,14.0,89,0.24,,,0.35,,2013-05-01 03:01:00,
2013-04-30 22:11:00,50.0,47.0,29.93,NNW,330,8.0,14.0,89,0.24,,,0.35,,2013-05-01 03:11:00,
2013-04-30 22:21:00,50.0,47.0,29.93,North,1,0.0,12.0,91,0.43,,,0.51,,2013-05-01 03:21:00,
2013-04-30 22:33:00,49.0,47.0,29.93,North,357,8.0,9.0,92,0.47,,,0.63,,2013-05-01 03:33:00,
2013-04-30 22:43:00,49.0,47.0,29.93,North,357,8.0,9.0,92,0.47,,,0.63,,2013-05-01 03:43:00,
2013-04-30 22:53:00,49.0,47.0,29.93,ENE,66,8.0,8.0,94,0.43,,,0.71,,2013-05-01 03:53:00,
2013-04-30 23:03:00,49.0,47.0,29.90,North,10,14.0,14.0,94,0.35,,,0.71,,2013-05-01 04:03:00,
2013-04-30 23:12:00,49.0,47.0,29.90,North,10,14.0,14.0,94,0.35,,,0.71,,2013-05-01 04:12:00,
2013-04-30 23:22:00,49.0,47.0,29.96,North,10,14.0,14.0,94,0.12,,,0.71,,2013-05-01 04:22:00,
2013-04-30 23:32:00,49.0,47.0,29.96,North,353,10.0,10.0,94,0.12,,,0.71,,2013-05-01 04:32:00,
2013-04-30 23:42:00,49.0,47.0,29.96,North,353,10.0,10.0,94,0.12,,,0.71,,2013-05-01 04:42:00,
2013-04-30 23:52:00,49.0,48.0,29.93,NNE,25,0.0,0.0,95,0.00,,,0.71,,2013-05-01 04:52:00,